N0HOT Weather Reports


Display with metric or nautical units.
time (UTC)temp
F
wind
direction
speed
MPH
gust
MPH
rain 1hr
in
rain 24hr
in
rain mn
in
humidity
%
barometer
mb
20260502170349 61 103 5.0 7.0 0.00 0.00 0.00 23 1017.8
20260502164336 60 191 3.0 4.0 0.00 0.00 0.00 22 1018.1
20260502163832 60 172 2.0 3.0 0.00 0.00 0.00 24 1018.1
20260502163328 60 173 3.0 7.0 0.00 0.00 0.00 23 1018.1
20260502162826 60 83 2.0 2.0 0.00 0.00 0.00 24 1018.5
20260502162322 59 208 5.0 6.0 0.00 0.00 0.00 24 1018.5
20260502161819 59 192 2.0 3.0 0.00 0.00 0.00 25 1018.5
20260502161310 59 193 2.0 3.0 0.00 0.00 0.00 26 1018.5
20260502160808 59 190 6.0 9.0 0.00 0.00 0.00 27 1018.8
20260502160306 60 157 4.0 4.0 0.00 0.00 0.00 24 1018.5
20260502152241 58 234 4.0 7.0 0.00 0.00 0.00 30 1019.1
20260502151739 57 175 3.0 4.0 0.00 0.00 0.00 32 1019.5
20260502151235 56 191 6.0 7.0 0.00 0.00 0.00 31 1019.5
20260502150733 56 148 4.0 4.0 0.00 0.00 0.00 32 1019.5
20260502150229 55 193 1.0 2.0 0.00 0.00 0.00 34 1019.5
20260502130618 36 172 0.0 0.0 0.00 0.00 0.00 63 1022.3
20260502130116 35 178 0.0 0.0 0.00 0.00 0.00 66 1022.3
20260502123601 33 204 0.0 0.0 0.00 0.00 0.00 71 1022.3
20260502123058 32 213 0.0 0.0 0.00 0.00 0.00 73 1022.3
20260502122554 32 212 0.0 0.0 0.00 0.00 0.00 73 1022.3
20260502122052 32 213 0.0 0.0 0.00 0.00 0.00 74 1022.3
20260502121549 32 213 0.0 0.0 0.00 0.00 0.00 73 1022.3
20260502121047 32 217 0.0 0.0 0.00 0.00 0.00 73 1022.3
20260502120542 32 219 0.0 0.0 0.00 0.00 0.00 73 1022.3
20260502115538 31 219 0.0 0.0 0.00 0.00 0.00 73 1022.3
20260502115033 30 219 0.0 0.0 0.00 0.00 0.00 77 1022.3
20260502114524 29 219 0.0 0.0 0.00 0.00 0.00 78 1022.3
20260502114021 29 219 0.0 0.0 0.00 0.00 0.00 77 1022.3
20260502113519 28 219 0.0 0.0 0.00 0.00 0.00 77 1022.3
20260502113017 28 219 0.0 0.0 0.00 0.00 0.00 76 1022.3
20260502112515 28 219 0.0 0.0 0.00 0.00 0.00 75 1022.3
20260502112012 28 219 0.0 0.0 0.00 0.00 0.00 75 1022.3
20260502111509 28 219 0.0 0.0 0.00 0.00 0.00 75 1021.9
20260502111007 28 219 0.0 0.0 0.00 0.00 0.00 75 1021.9
20260502110504 28 219 0.0 0.0 0.00 0.00 0.00 75 1021.9
20260502110002 28 219 0.0 0.0 0.00 0.00 0.00 75 1022.3
20260502105459 28 219 0.0 0.0 0.00 0.00 0.00 75 1021.9
20260502104956 28 219 0.0 0.0 0.00 0.00 0.00 74 1022.3
20260502104453 29 219 0.0 0.0 0.00 0.00 0.00 74 1021.9
20260502103950 29 219 0.0 0.0 0.00 0.00 0.00 74 1022.3
20260502103447 29 219 0.0 0.0 0.00 0.00 0.00 74 1021.9
20260502102939 29 219 0.0 0.0 0.00 0.00 0.00 74 1022.3
20260502102436 29 219 0.0 0.0 0.00 0.00 0.00 74 1022.3
20260502101932 29 219 0.0 0.0 0.00 0.00 0.00 74 1022.3
20260502101431 29 219 0.0 0.0 0.00 0.00 0.00 73 1021.9
20260502100929 29 219 0.0 0.0 0.00 0.00 0.00 73 1021.9
20260502100428 29 219 0.0 0.0 0.00 0.00 0.00 73 1022.3
20260502091403 30 219 0.0 0.0 0.00 0.00 0.00 71 1021.6
20260502090859 30 219 0.0 0.0 0.00 0.00 0.00 71 1021.9
20260502090356 31 219 0.0 0.0 0.00 0.00 0.00 71 1021.6
20260502071250 33 219 0.0 0.0 0.00 0.00 0.00 65 1021.6
20260502070749 33 219 0.0 0.0 0.00 0.00 0.00 64 1021.6
20260502070246 33 219 0.0 0.0 0.00 0.00 0.00 63 1021.6
20260502065745 33 219 0.0 0.0 0.00 0.00 0.00 62 1021.6
20260502065243 33 219 0.0 0.0 0.00 0.00 0.00 62 1021.6
20260502064741 33 219 0.0 1.0 0.00 0.00 0.00 62 1021.2
20260502064238 33 219 0.0 0.0 0.00 0.00 0.00 62 1021.2
20260502063735 34 219 0.0 0.0 0.00 0.00 0.00 62 1021.2
20260502063233 34 219 0.0 0.0 0.00 0.00 0.00 61 1021.6
20260502062730 34 219 0.0 0.0 0.00 0.00 0.00 61 1021.2
20260502062228 34 219 0.0 0.0 0.00 0.00 0.00 61 1021.6
20260502061726 34 219 0.0 0.0 0.00 0.00 0.00 59 1021.6
20260502061224 34 219 0.0 0.0 0.00 0.00 0.00 60 1021.2
20260502060718 34 219 0.0 0.0 0.00 0.00 0.00 60 1021.2
20260502060215 35 219 0.0 0.0 0.00 0.00 0.00 60 1021.2
20260502055713 35 219 0.0 0.0 0.00 0.00 0.00 59 1021.2
20260502055210 35 219 0.0 0.0 0.00 0.00 0.00 59 1021.2
20260502054709 35 219 0.0 0.0 0.00 0.00 0.00 58 1021.2
20260502054206 35 219 0.0 0.0 0.00 0.00 0.00 57 1021.2
20260502053704 36 219 0.0 0.0 0.00 0.00 0.00 57 1021.2
20260502053200 36 219 0.0 0.0 0.00 0.00 0.00 56 1020.8
20260502052659 36 219 0.0 0.0 0.00 0.00 0.00 56 1021.2
20260502052157 37 219 0.0 0.0 0.00 0.00 0.00 55 1021.2
20260502051654 37 219 0.0 0.0 0.00 0.00 0.00 55 1020.8
20260502051152 37 219 0.0 0.0 0.00 0.00 0.00 55 1020.8
20260502050648 37 219 0.0 0.0 0.00 0.00 0.00 54 1020.8
20260502050145 37 219 0.0 0.0 0.00 0.00 0.00 52 1020.8
20260502045642 37 219 0.0 0.0 0.00 0.00 0.00 53 1020.5
20260502045139 37 219 0.0 0.0 0.00 0.00 0.00 53 1020.5
20260502044636 37 219 0.0 0.0 0.00 0.00 0.00 52 1020.5
20260502044132 38 219 0.0 0.0 0.00 0.00 0.00 51 1020.5
20260502043630 38 219 0.0 0.0 0.00 0.00 0.00 51 1020.5
20260502043127 38 219 0.0 0.0 0.00 0.00 0.00 50 1020.5
20260502042626 39 219 0.0 0.0 0.00 0.00 0.00 49 1020.5
20260502042124 39 219 0.0 0.0 0.00 0.00 0.00 49 1020.5
20260502041622 39 219 0.0 0.0 0.00 0.00 0.00 49 1020.1
20260502041119 39 219 0.0 0.0 0.00 0.00 0.00 49 1020.5
20260502040615 40 219 0.0 0.0 0.00 0.00 0.00 48 1020.5
20260502040113 40 219 0.0 0.0 0.00 0.00 0.00 47 1020.5
20260502035609 40 219 0.0 0.0 0.00 0.00 0.00 47 1020.5
20260502035106 41 218 0.0 0.0 0.00 0.00 0.00 47 1020.1
20260502034604 41 218 0.0 0.0 0.00 0.00 0.00 47 1020.1
20260502034102 41 218 0.0 0.0 0.00 0.00 0.00 45 1020.5
20260502033559 42 218 0.0 0.0 0.00 0.00 0.00 46 1020.1
20260502033057 42 219 0.0 0.0 0.00 0.00 0.00 43 1020.1
20260502032552 42 219 0.0 0.0 0.00 0.00 0.00 43 1020.1
20260502032049 43 218 0.0 0.0 0.00 0.00 0.00 43 1020.1
20260502031547 43 219 0.0 0.0 0.00 0.00 0.00 42 1020.1
20260502031045 44 219 0.0 0.0 0.00 0.00 0.00 43 1020.1
20260502030544 44 209 0.0 0.0 0.00 0.00 0.00 42 1020.1
20260502030041 44 200 0.0 0.0 0.00 0.00 0.00 41 1019.8
20260502025538 44 194 0.0 0.0 0.00 0.00 0.00 40 1019.8
20260502025036 45 195 0.0 0.0 0.00 0.00 0.00 41 1019.8
20260502024533 45 248 0.0 1.0 0.00 0.00 0.00 36 1019.8
20260502024032 45 248 1.0 1.0 0.00 0.00 0.00 36 1019.8
20260502023529 45 244 1.0 1.0 0.00 0.00 0.00 37 1019.8
20260502023026 45 244 0.0 0.0 0.00 0.00 0.00 38 1019.8
20260502022522 46 243 0.0 0.0 0.00 0.00 0.00 37 1019.5
20260502022020 46 243 0.0 0.0 0.00 0.00 0.00 38 1019.5
20260502021517 46 254 1.0 1.0 0.00 0.00 0.00 36 1019.5
20260502021014 46 243 1.0 1.0 0.00 0.00 0.00 34 1019.5
20260502020512 46 241 0.0 0.0 0.00 0.00 0.00 34 1019.5
20260502020009 46 241 0.0 0.0 0.00 0.00 0.00 34 1019.1
20260502015507 46 241 0.0 0.0 0.00 0.00 0.00 34 1019.1
20260502015002 47 241 0.0 0.0 0.00 0.00 0.00 36 1019.5
20260502014459 47 214 0.0 0.0 0.00 0.00 0.00 34 1019.1
20260502013956 47 215 0.0 1.0 0.00 0.00 0.00 34 1018.8
20260502013452 48 224 0.0 0.0 0.00 0.00 0.00 33 1018.8
20260502012948 48 224 0.0 0.0 0.00 0.00 0.00 33 1018.8
20260502012446 48 224 0.0 0.0 0.00 0.00 0.00 33 1018.8
20260502011944 49 224 0.0 0.0 0.00 0.00 0.00 32 1018.8
20260502011439 49 224 0.0 0.0 0.00 0.00 0.00 32 1018.8
20260502010936 50 214 0.0 0.0 0.00 0.00 0.00 33 1018.5
20260502010433 50 213 0.0 0.0 0.00 0.00 0.00 33 1018.5
20260502005929 50 211 0.0 0.0 0.00 0.00 0.00 33 1018.1
20260502005427 51 227 0.0 1.0 0.00 0.00 0.00 33 1018.5
20260502004926 51 289 1.0 1.0 0.00 0.00 0.00 34 1018.1
20260502004421 51 228 0.0 0.0 0.00 0.00 0.00 33 1018.1
20260502003918 51 228 0.0 1.0 0.00 0.00 0.00 36 1018.1
20260502003416 51 3 2.0 3.0 0.00 0.00 0.00 30 1017.8
20260502002911 51 346 1.0 2.0 0.00 0.00 0.00 32 1018.1
20260502002409 51 199 0.0 0.0 0.00 0.00 0.00 29 1017.8
20260502001906 51 218 0.0 0.0 0.00 0.00 0.00 34 1017.8
20260502001404 51 231 0.0 0.0 0.00 0.00 0.00 32 1018.1
20260502000901 51 189 1.0 1.0 0.00 0.00 0.00 31 1017.8
20260502000402 51 216 0.0 0.0 0.00 0.00 0.00 31 1017.8
20260501235855 52 285 2.0 2.0 0.00 0.00 0.00 31 1017.8
20260501235345 52 257 1.0 1.0 0.00 0.00 0.00 33 1017.8
20260501234840 52 2 1.0 1.0 0.00 0.00 0.00 31 1017.8
20260501234338 53 343 1.0 2.0 0.00 0.00 0.00 30 1017.8
20260501233836 53 240 0.0 1.0 0.00 0.00 0.00 30 1017.8
20260501233333 53 37 0.0 0.0 0.00 0.00 0.00 29 1017.3
20260501232829 53 358 1.0 1.0 0.00 0.00 0.00 29 1017.3
20260501232327 53 25 1.0 2.0 0.00 0.00 0.00 28 1017.3
20260501231824 53 262 0.0 1.0 0.00 0.00 0.00 30 1017.3
20260501231321 53 289 1.0 2.0 0.00 0.00 0.00 28 1017.8
20260501230820 53 88 1.0 1.0 0.00 0.00 0.00 31 1017.3
20260501230319 53 88 0.0 1.0 0.00 0.00 0.00 33 1017.3
20260501225816 53 247 0.0 1.0 0.00 0.00 0.00 29 1017.3
20260501225313 53 332 0.0 1.0 0.00 0.00 0.00 28 1017.3
20260501224809 53 240 0.0 1.0 0.00 0.00 0.00 30 1017.3
20260501224307 54 94 0.0 0.0 0.00 0.00 0.00 29 1017.3
20260501223803 54 183 0.0 0.0 0.00 0.00 0.00 29 1017.3
20260501223259 55 170 0.0 1.0 0.00 0.00 0.00 32 1017.3
20260501222755 55 241 1.0 1.0 0.00 0.00 0.00 30 1017.3
20260501222252 55 233 0.0 1.0 0.00 0.00 0.00 30 1017.3
20260501221749 55 23 3.0 3.0 0.00 0.00 0.00 26 1017.3
20260501221246 55 56 1.0 1.0 0.00 0.00 0.00 25 1017.0
20260501220744 55 114 1.0 2.0 0.00 0.00 0.00 28 1017.3
20260501220241 55 172 1.0 2.0 0.00 0.00 0.00 32 1017.3
20260501215738 55 306 1.0 1.0 0.00 0.00 0.00 27 1017.3
20260501215233 55 34 0.0 1.0 0.00 0.00 0.00 28 1017.0
20260501214729 55 261 2.0 3.0 0.00 0.00 0.00 27 1017.0
20260501214225 56 7 2.0 3.0 0.00 0.00 0.00 26 1017.0
20260501213721 56 37 1.0 2.0 0.00 0.00 0.00 25 1017.0
20260501213217 56 3 3.0 3.0 0.00 0.00 0.00 23 1016.7
20260501212714 56 244 0.0 1.0 0.00 0.00 0.00 24 1017.0
20260501212210 56 276 1.0 2.0 0.00 0.00 0.00 25 1017.0
20260501211707 56 186 2.0 3.0 0.00 0.00 0.00 23 1017.0
20260501211204 56 194 1.0 2.0 0.00 0.00 0.00 23 1017.0
20260501210702 56 9 2.0 3.0 0.00 0.00 0.00 23 1017.0
20260501210158 55 269 2.0 2.0 0.00 0.00 0.00 28 1017.0
20260501205654 55 247 2.0 2.0 0.00 0.00 0.00 25 1017.0
20260501205152 55 39 0.0 0.0 0.00 0.00 0.00 26 1016.7
20260501204648 55 45 0.0 0.0 0.00 0.00 0.00 26 1017.0
20260501204144 55 329 4.0 4.0 0.00 0.00 0.00 26 1017.0
20260501203641 55 166 0.0 0.0 0.00 0.00 0.00 27 1017.0
20260501203139 55 325 2.0 3.0 0.00 0.00 0.00 28 1017.0
20260501202635 56 199 2.0 2.0 0.00 0.00 0.00 27 1017.3
20260501202132 56 144 1.0 2.0 0.00 0.00 0.00 25 1017.3
20260501201629 57 91 2.0 4.0 0.00 0.00 0.00 25 1016.7
20260501201126 56 83 1.0 1.0 0.00 0.00 0.00 25 1017.3
20260501200623 56 290 2.0 3.0 0.00 0.00 0.00 23 1017.0
20260501200120 56 270 3.0 4.0 0.00 0.00 0.00 23 1017.3
20260501195618 56 52 0.0 1.0 0.00 0.00 0.00 27 1017.3
20260501195113 55 317 3.0 4.0 0.00 0.00 0.00 25 1017.0
20260501194609 55 52 1.0 2.0 0.00 0.00 0.00 25 1017.0
20260501194104 55 89 1.0 2.0 0.00 0.00 0.00 30 1017.3
20260501193602 55 312 3.0 7.0 0.00 0.00 0.00 27 1017.3
20260501193101 55 149 1.0 2.0 0.00 0.00 0.00 24 1017.3
20260501192557 55 96 1.0 2.0 0.00 0.00 0.00 29 1017.3
20260501192055 56 79 0.0 0.0 0.00 0.00 0.00 26 1017.0
20260501191551 56 190 2.0 2.0 0.00 0.00 0.00 24 1017.0
20260501191049 55 153 3.0 3.0 0.00 0.00 0.00 23 1017.3
20260501190544 55 339 4.0 4.0 0.00 0.00 0.00 24 1017.0
20260501190040 55 327 6.0 7.0 0.00 0.00 0.00 23 1017.3
20260501185536 55 68 2.0 3.0 0.00 0.00 0.00 28 1017.3
20260501185033 54 119 2.0 2.0 0.00 0.00 0.00 27 1017.8
20260501184529 55 52 2.0 4.0 0.00 0.00 0.00 26 1017.8
20260501184029 54 314 2.0 3.0 0.00 0.00 0.00 25 1017.3
20260501183526 54 132 2.0 2.0 0.00 0.00 0.00 28 1017.3
20260501183022 54 141 2.0 3.0 0.00 0.00 0.00 29 1017.3
20260501182519 54 222 5.0 7.0 0.00 0.00 0.00 26 1017.3
20260501182016 54 321 4.0 6.0 0.00 0.00 0.00 26 1017.3
20260501181514 54 77 1.0 1.0 0.00 0.00 0.00 28 1017.3
20260501181010 54 285 3.0 3.0 0.00 0.00 0.00 30 1017.8
20260501180508 54 63 1.0 1.0 0.00 0.00 0.00 30 1017.3
20260501180004 54 46 1.0 2.0 0.00 0.00 0.00 29 1017.8
20260501175500 53 95 2.0 3.0 0.00 0.00 0.00 31 1017.8
20260501174957 53 276 2.0 3.0 0.00 0.00 0.00 30 1018.1
20260501174455 52 103 2.0 2.0 0.00 0.00 0.00 35 1017.8
20260501173952 52 90 5.0 7.0 0.00 0.00 0.00 30 1017.8
20260501173449 52 328 2.0 3.0 0.00 0.00 0.00 30 1017.8
20260501172945 51 54 1.0 2.0 0.00 0.00 0.00 29 1017.8
20260501172441 51 10 2.0 2.0 0.00 0.00 0.00 32 1018.1
20260501171937 51 280 6.0 8.0 0.00 0.00 0.00 32 1017.8
20260501171433 52 133 4.0 6.0 0.00 0.00 0.00 33 1017.8